• In Czech Republic
  • List of Countries
  • For 7 days
  • Water Temperature
  • Satellite Maps
  • Weather Map
  • Weather Widgets
  • user-avatar
    Login

    Hourly Weather Kapan

    Today, 19 October, Friday

    Time Temperature Precipitation Wind Pressure Humidity
    00:00 +14°C° 0 mm 1 mps 687 mmHg 80%
    01:00 +14°C° 0 mm 1 mps 687 mmHg 80%
    02:00 +13°C° 0 mm 1 mps 687 mmHg 81%
    03:00 +13°C° 0 mm 1 mps 687 mmHg 83%
    04:00 +13°C° 0 mm 1 mps 688 mmHg 83%
    05:00 +13°C° 0 mm 1 mps 688 mmHg 83%
    06:00 +13°C° 0 mm 1 mps 688 mmHg 82%
    07:00 +14°C° 0 mm 1 mps 688 mmHg 73%
    08:00 +16°C° 0 mm 1 mps 689 mmHg 63%
    09:00 +19°C° 0 mm 1 mps 689 mmHg 53%
    10:00 +19°C° 0 mm 2 mps 689 mmHg 48%
    11:00 +20°C° 0 mm 2 mps 689 mmHg 44%
    12:00 +21°C° 0 mm 2 mps 689 mmHg 39%
    13:00 +21°C° 0 mm 2 mps 688 mmHg 39%
    14:00 +21°C° 0 mm 2 mps 688 mmHg 39%
    15:00 +21°C° 0 mm 2 mps 688 mmHg 38%
    16:00 +20°C° 0 mm 2 mps 688 mmHg 46%
    17:00 +19°C° 0 mm 1 mps 687 mmHg 54%
    18:00 +16°C° 0 mm 1 mps 687 mmHg 62%
    19:00 +16°C° 0 mm 1 mps 687 mmHg 64%
    20:00 +15°C° 0 mm 1 mps 687 mmHg 66%
    21:00 +14°C° 0 mm 0 mps 687 mmHg 68%
    22:00 +14°C° 0 mm 0 mps 687 mmHg 67%
    23:00 +15°C° 0 mm 1 mps 687 mmHg 66%

    Tomorrow, 20 October, Saturday

    Time Temperature Precipitation Wind Pressure Humidity
    00:00 +14°C° 0 mm 1 mps 687 mmHg 66%
    01:00 +14°C° 0 mm 1 mps 687 mmHg 64%
    02:00 +14°C° 0 mm 1 mps 686 mmHg 62%
    03:00 +14°C° 0 mm 1 mps 686 mmHg 61%
    04:00 +14°C° 0 mm 1 mps 686 mmHg 60%
    05:00 +14°C° 0 mm 1 mps 686 mmHg 60%
    06:00 +13°C° 0 mm 1 mps 686 mmHg 59%
    07:00 +16°C° 0 mm 1 mps 687 mmHg 53%
    08:00 +19°C° 0 mm 1 mps 687 mmHg 47%
    09:00 +21°C° 0 mm 1 mps 688 mmHg 41%
    10:00 +21°C° 0 mm 2 mps 688 mmHg 38%
    11:00 +23°C° 0 mm 2 mps 687 mmHg 35%
    12:00 +24°C° 0 mm 2 mps 687 mmHg 32%
    13:00 +24°C° 0 mm 2 mps 687 mmHg 33%
    14:00 +24°C° 0 mm 2 mps 686 mmHg 34%
    15:00 +24°C° 0 mm 2 mps 686 mmHg 35%
    16:00 +21°C° 0 mm 2 mps 686 mmHg 42%
    17:00 +20°C° 0 mm 1 mps 685 mmHg 49%
    18:00 +19°C° 0 mm 1 mps 685 mmHg 56%
    19:00 +18°C° 0 mm 1 mps 685 mmHg 56%
    20:00 +18°C° 0 mm 1 mps 685 mmHg 56%
    21:00 +18°C° 0 mm 1 mps 685 mmHg 55%
    22:00 +16°C° 0 mm 1 mps 685 mmHg 54%
    23:00 +16°C° 0 mm 1 mps 685 mmHg 52%

    Day after tomorrow, 21 October, Sunday

    Time Temperature Precipitation Wind Pressure Humidity
    00:00 +16°C° 0 mm 1 mps 685 mmHg 50%
    01:00 +16°C° 0 mm 1 mps 685 mmHg 49%
    02:00 +16°C° 0 mm 1 mps 685 mmHg 49%
    03:00 +16°C° 0 mm 1 mps 684 mmHg 49%
    04:00 +16°C° 0 mm 1 mps 684 mmHg 50%
    05:00 +15°C° 0 mm 1 mps 684 mmHg 51%
    06:00 +15°C° 0 mm 1 mps 684 mmHg 53%
    07:00 +18°C° 0 mm 1 mps 685 mmHg 48%
    08:00 +20°C° 0 mm 1 mps 685 mmHg 44%
    09:00 +22°C° 0 mm 1 mps 686 mmHg 40%
    10:00 +23°C° 0 mm 1 mps 686 mmHg 39%
    11:00 +23°C° 0 mm 2 mps 686 mmHg 37%
    12:00 +24°C° 0 mm 2 mps 685 mmHg 35%
    13:00 +24°C° 0 mm 2 mps 685 mmHg 37%
    14:00 +24°C° 0 mm 2 mps 685 mmHg 38%
    15:00 +24°C° 0 mm 2 mps 685 mmHg 40%
    16:00 +21°C° 0 mm 2 mps 684 mmHg 46%
    17:00 +21°C° 0 mm 1 mps 684 mmHg 52%
    18:00 +19°C° 0 mm 1 mps 684 mmHg 59%
    19:00 +19°C° 0 mm 1 mps 684 mmHg 61%
    20:00 +18°C° 0 mm 1 mps 684 mmHg 63%
    21:00 +16°C° 0 mm 0 mps 684 mmHg 65%
    22:00 +18°C° 0 mm 1 mps 684 mmHg 65%
    23:00 +18°C° 0 mm 1 mps 684 mmHg 65%

    22 October, Monday

    Time Temperature Precipitation Wind Pressure Humidity
    00:00 +18°C° 0 mm 1 mps 684 mmHg 65%
    01:00 +16°C° 0 mm 1 mps 683 mmHg 65%
    02:00 +16°C° 0 mm 1 mps 683 mmHg 65%
    03:00 +16°C° 0 mm 1 mps 683 mmHg 65%
    04:00 +16°C° 0 mm 1 mps 683 mmHg 65%
    05:00 +16°C° 0 mm 1 mps 683 mmHg 65%
    06:00 +15°C° 0 mm 2 mps 683 mmHg 65%
    07:00 +17°C° 0 mm 2 mps 684 mmHg 59%
    08:00 +19°C° 0 mm 2 mps 685 mmHg 53%
    09:00 +21°C° 0 mm 2 mps 685 mmHg 47%
    10:00 +23°C° 0 mm 2 mps 685 mmHg 44%
    11:00 +24°C° 0 mm 2 mps 685 mmHg 40%
    12:00 +25°C° 0 mm 3 mps 685 mmHg 37%
    13:00 +25°C° 0 mm 3 mps 685 mmHg 36%
    14:00 +25°C° 0 mm 3 mps 684 mmHg 35%
    15:00 +25°C° 0 mm 3 mps 684 mmHg 35%
    16:00 +23°C° 0 mm 2 mps 684 mmHg 41%
    17:00 +20°C° 0 mm 2 mps 684 mmHg 47%
    18:00 +20°C° 0 mm 1 mps 684 mmHg 53%
    19:00 +19°C° 0 mm 1 mps 684 mmHg 54%
    20:00 +19°C° 0 mm 1 mps 684 mmHg 54%
    21:00 +18°C° 0 mm 1 mps 684 mmHg 55%
    22:00 +17°C° 0 mm 2 mps 684 mmHg 54%
    23:00 +17°C° 0 mm 2 mps 684 mmHg 53%

    23 October, Tuesday

    Time Temperature Precipitation Wind Pressure Humidity
    00:00 +17°C° 0 mm 2 mps 684 mmHg 53%
    01:00 +17°C° 0 mm 2 mps 684 mmHg 53%
    02:00 +16°C° 0 mm 2 mps 685 mmHg 52%
    03:00 +16°C° 0 mm 2 mps 685 mmHg 52%
    04:00 +16°C° 0 mm 2 mps 685 mmHg 53%
    05:00 +16°C° 0 mm 2 mps 685 mmHg 54%
    06:00 +16°C° 0 mm 2 mps 685 mmHg 55%
    07:00 +17°C° 0 mm 2 mps 686 mmHg 49%
    08:00 +19°C° 0 mm 2 mps 686 mmHg 44%
    09:00 +21°C° 0 mm 2 mps 687 mmHg 38%
    10:00 +23°C° 0 mm 2 mps 686 mmHg 35%
    11:00 +24°C° 0 mm 3 mps 686 mmHg 31%
    12:00 +25°C° 0 mm 3 mps 686 mmHg 28%
    13:00 +25°C° 0 mm 3 mps 686 mmHg 28%
    14:00 +25°C° 0 mm 3 mps 686 mmHg 28%
    15:00 +25°C° 0 mm 3 mps 685 mmHg 28%
    16:00 +24°C° 0 mm 2 mps 685 mmHg 33%
    17:00 +21°C° 0 mm 2 mps 685 mmHg 38%
    18:00 +20°C° 0 mm 1 mps 685 mmHg 43%
    19:00 +20°C° 0 mm 1 mps 685 mmHg 44%
    20:00 +19°C° 0 mm 2 mps 685 mmHg 44%
    21:00 +19°C° 0 mm 2 mps 685 mmHg 45%
    22:00 +18°C° 0 mm 2 mps 685 mmHg 45%
    23:00 +18°C° 0 mm 2 mps 685 mmHg 45%

    24 October, Wednesday

    Time Temperature Precipitation Wind Pressure Humidity
    00:00 +18°C° 0 mm 2 mps 685 mmHg 45%
    01:00 +17°C° 0 mm 2 mps 685 mmHg 46%
    02:00 +17°C° 0 mm 2 mps 684 mmHg 47%
    03:00 +17°C° 0 mm 2 mps 684 mmHg 48%
    04:00 +16°C° 0 mm 2 mps 684 mmHg 49%
    05:00 +16°C° 0 mm 2 mps 684 mmHg 50%
    06:00 +16°C° 0 mm 2 mps 684 mmHg 51%
    07:00 +18°C° 0 mm 3 mps 685 mmHg 47%
    08:00 +20°C° 0 mm 3 mps 685 mmHg 42%
    09:00 +22°C° 0 mm 3 mps 685 mmHg 37%
    10:00 +24°C° 0 mm 3 mps 685 mmHg 35%
    11:00 +25°C° 0 mm 4 mps 685 mmHg 32%
    12:00 +26°C° 0 mm 4 mps 684 mmHg 30%
    13:00 +26°C° 0 mm 4 mps 684 mmHg 30%
    14:00 +26°C° 0 mm 4 mps 683 mmHg 30%
    15:00 +27°C° 0 mm 4 mps 683 mmHg 30%
    16:00 +25°C° 0 mm 3 mps 682 mmHg 35%
    17:00 +23°C° 0 mm 2 mps 682 mmHg 39%
    18:00 +21°C° 0 mm 2 mps 681 mmHg 44%
    19:00 +20°C° 0 mm 2 mps 681 mmHg 45%
    20:00 +20°C° 0 mm 2 mps 681 mmHg 46%
    21:00 +19°C° 0 mm 2 mps 681 mmHg 48%
    22:00 +19°C° 0 mm 2 mps 681 mmHg 49%
    23:00 +19°C° 0 mm 2 mps 681 mmHg 49%
    Show more